Find Starlink 5276

NORAD ID: 55399 Int'l Des: 2023-014 Owner: SPXS Country: US Constellation: starlink operational
LEOCIRCULAR

当前视图

正在加载3D地球...

About Starlink 5276

Starlink 5276 (NORAD 55399) is a starlink constellation satellite (v1.5) launched Jan 31, 2023 by SPXS of US. It operates in LEO, CIRCULAR orbit with a mass of 305.00 kg.

即将过境

Passes for default location (London). Set your location on the main map for personalized predictions.

高度历史

Loading altitude history...

两行轨道根数

1 55399U 23014J 26263.80269579 -.00000273 00000-0 -15099-4 0 9998
2 55399 69.9979 292.4190 0003736 269.0747 90.9984 14.98329458201288
Epoch: Sep 20, 2026 • Age: 11 hours

当前状态

高度 585.8 km
远地点 / 近地点 N/A
速度 7.57 km/s
星下点 -41.88°S, 177.98°E
发射日期 Jan 31, 2023
运行时间 3.6 years
类型 internet

技术详情

分类 Payload
质量 305.00 kg
干质量 290.00 kg
长度 0.20 m
跨度 9.00 m
形状 ? Box + pan
制造商 SPXS
平台类型 Starlink
阶段状态 In Orbit
所有者/国家 SPXS/US

Most Searched